Location: Gellin
(53.4498°N, 14.3207°E)
Time: 21:57:54
(UTC+00:00)

Gbstr 26 Del rocket - Pass Details

Date: 03 March 2021
Orbit: 492 x 1264 km, 51.8° (Epoch: 12 April)

Event Time Altitude Azimuth Distance (km) Brightness Sun altitude
Rises 18:08:37 0° 259° (W) 2,789 8.0 -13.3°
Reaches altitude 10° 18:10:41 10° 258° (WSW) 1,970 6.8 -13.6°
Maximum altitude 18:15:10 73° 174° (S) 736 3.3 -14.2°
Enters shadow 18:18:36 23° 93° (E) 1,630 4.6 -14.7°
